EW2997 Weather Reports


time (UTC)temp
F
wind
direction
speed
knots
gust
knots
rain 1hr
in
rain 24hr
in
rain mn
in
humidity
%
barometer
mb
20260903035112 69 253 0.0 0.0 0.00 0.29 0.29 97 1020.5
20260903032111 69 253 0.0 0.0 0.00 0.29 0.29 97 1021.2
20260903025106 69 253 1.7 1.7 0.00 0.29 0.29 97 1020.5
20260903022101 70 253 0.0 0.0 0.00 0.29 0.29 97 1020.5
20260903015100 70 253 0.0 0.0 0.00 0.29 0.29 96 1020.8
20260903012059 71 253 0.0 0.0 0.00 0.29 0.29 96 1020.8
20260903005055 72 253 0.0 0.0 0.00 0.29 0.29 96 1020.5
20260903002054 73 253 0.0 0.0 0.00 0.29 0.29 95 1020.5
20260902235050 73 127 0.0 0.0 0.11 0.28 0.28 95 1021.2
20260902232049 74 197 0.0 0.0 0.04 0.22 0.22 93 1021.9
20260902225044 75 196 0.0 0.0 0.00 0.15 0.15 89 1021.2
20260902222043 78 196 1.7 1.7 0.00 0.15 0.15 80 1020.5
20260902215043 80 121 0.0 0.0 0.00 0.15 0.15 72 1020.5
20260902212041 82 122 3.5 3.5 0.00 0.15 0.15 65 1021.2
20260902205038 81 197 0.9 0.9 0.00 0.15 0.15 68 1021.2
20260902202037 83 83 1.7 1.7 0.00 0.15 0.15 64 1021.2
20260902195036 85 222 0.0 0.0 0.00 0.15 0.15 60 1021.2
20260902192036 79 276 1.7 1.7 0.00 0.15 0.15 73 1021.5
20260902185032 79 221 1.7 1.7 0.00 0.15 0.15 76 1021.9
20260902182030 77 264 1.7 1.7 0.00 0.15 0.15 80 1021.9
20260902175030 78 288 0.0 0.0 0.00 0.15 0.15 76 1022.2
20260902172027 71 82 1.7 1.7 0.00 0.15 0.15 94 1022.9
20260902165027 71 59 0.0 0.0 0.15 0.15 0.15 92 1023.7
20260902162022 70 78 0.0 0.0 0.14 0.14 0.14 93 1024.3
20260902155019 78 42 4.3 4.3 0.00 0.00 0.00 77 1024.0
20260902152018 81 240 1.7 1.7 0.00 0.00 0.00 75 1022.5
20260902145016 80 236 1.7 1.7 0.00 0.00 0.00 76 1022.2
20260902142012 81 207 0.0 0.0 0.00 0.00 0.00 76 1022.2
20260902135009 80 192 0.0 0.0 0.00 0.00 0.00 76 1022.2
20260902132008 79 241 0.0 0.0 0.00 0.00 0.00 77 1022.2
20260902125004 78 235 1.7 1.7 0.00 0.00 0.00 82 1022.5
20260902122004 76 26 0.0 0.0 0.00 0.00 0.00 86 1021.9
20260902115000 70 25 0.0 0.0 0.00 0.00 0.00 95 1021.9
20260902111954 69 25 0.0 0.0 0.00 0.00 0.00 97 1021.5
20260902104950 69 25 0.0 0.0 0.00 0.00 0.00 97 1021.5
20260902101947 69 25 0.0 0.0 0.00 0.00 0.00 96 1022.2
20260902094947 69 25 0.0 0.0 0.00 0.00 0.00 96 1021.9
20260902091945 70 25 0.0 0.0 0.00 0.00 0.00 96 1021.9
20260902084944 70 25 0.9 0.9 0.00 0.00 0.00 95 1021.9
20260902081940 69 25 0.0 0.0 0.00 0.00 0.00 96 1021.9
20260902074936 70 25 0.0 0.0 0.00 0.00 0.00 95 1021.5
20260902071933 71 25 0.0 0.0 0.00 0.00 0.00 95 1021.5
20260902064931 71 26 1.7 1.7 0.00 0.00 0.00 94 1021.2
20260902061928 72 26 0.0 0.0 0.00 0.00 0.00 93 1021.2
20260902054926 73 26 0.0 0.0 0.00 0.00 0.00 91 1021.5
20260902051924 74 26 0.9 0.9 0.00 0.00 0.00 88 1021.9
20260902044921 76 26 0.0 0.0 0.00 0.00 0.00 85 1021.9
20260902041920 77 140 2.6 3.5 0.00 0.00 0.00 77 1021.5